Zurück zum Katalog

STARLINK-33551

AktivKommunikationVLEO
NORAD 62110·PAYLOAD·🇺🇸 United States

Gestartet Nov 25, 2024 von Cape Canaveral Space Force Station

Loading…

Nächste Überflüge (nächste 24 Stunden)

TLE

AktuellSource: CelesTrak SupGP

Epoche: Sep 15, 2026, 03:38 UTC

1 62110C 24220Y   26258.15187500 -.00024798  00000+0 -89834-3 0  2584
2 62110  43.0022 215.6011 0001220 267.8716 196.4162 15.27585561    16

Verfolge STARLINK-33551 in Echtzeit mit AllMySat

Download on the App Store